"Pseudo-MPEC" for P11YKUZ

Created 2025 Jan 28 16:37:17 UT using Find_Orb

Click here for an explanation of pseudo-MPECs

 
 Astrometry: 
     P11YKUZ  C2024 09 12.40562400 29 10.473+04 25 54.95         22.03wX     F51
     P11YKUZ  C2024 09 12.41705800 29 09.904+04 25 54.72         21.78wX     F51
     P11YKUZ  C2024 09 12.42856800 29 09.363+04 25 54.44         21.87wX     F51
     CAVHGY2 1C2024 09 24.28534000 19 16.943+04 14 50.14         21.37GV     G96
     CAVHGY2 1C2024 09 24.29046400 19 16.705+04 14 49.92         21.31GV     G96
     CAVHGY2 1C2024 09 24.29560000 19 16.460+04 14 49.52         21.02GV     G96
     P21ZijP  C2024 09 27.34737600 16 34.526+04 10 48.93         21.68wX     F52
     P21ZijP  C2024 09 27.35736900 16 33.981+04 10 48.58         21.25wX     F52
     P21ZijP  C2024 09 27.36735400 16 33.427+04 10 47.77         21.31wX     F52
     P21ZijP  C2024 09 27.37733600 16 32.889+04 10 46.89         21.11wX     F52
     P2212Lm  C2024 10 22.26223023 56 21.812+03 39 02.62         21.73wX     F52
     P2212Lm  C2024 10 22.27417923 56 21.326+03 39 02.31         21.74wX     F52
     P2212Lm  C2024 10 22.28675023 56 20.807+03 39 01.21         22.03wX     F52

Station data:
(F51) Pan-STARRS 1, Haleakala  (N20.707234 W156.255910)  US/Hawaii.
   Observers J. Herman, T. Lowe, P. Minguez, A. Schultz, I. Smith. Measurers
   K. Chambers, T. de Boer, J. Fairlamb, H. Gao, M. Huber, C.-C. Lin, E.
   Magnier, Y. Ramanjooloo, R. Wainscoat, R. Weryk. 1.8-m Ritchey-Chrétien +
   CCD.
(F52) Pan-STARRS 2, Haleakala  (N20.707382 W156.255910)  US/Hawaii.
   Observers J. Herman, T. Lowe, P. Minguez, A. Schultz, I. Smith. Measurers
   K. Chambers, T. de Boer, J. Fairlamb, H. Gao, M. Huber, C.-C. Lin, E.
   Magnier, Y. Ramanjooloo, R. Wainscoat, R. Weryk. 1.8-m Ritchey-Chrétien +
   CCD.
(G96) Mt. Lemmon Survey  (N32.442729 W110.788720)  US/Arizona.  Observer P.
   I. Catalina. Measurers T. Beuden, V. F. Carvajal, D. Fay, J. B. Fazekas,
   D. C. Fuls, A. R. Gibbs, A. D. Grauer, H. Gröller, J. K. Hogan, R. A.
   Kowalski, S. M. Larson, G. J. Leonard, D. Rankin, R. L. Seaman, F. C.
   Shelly, K. W. Wierzchoś. 1.5-m reflector + 10K CCD.

Orbital elements:  P11YKUZ
   Perihelion 2025 Jul 19.493457 +/- 1.02 TT = 11:50:34.6 (JD 2460875.993457)
Epoch 2024 Oct 22.0 TT = JDT 2460605.5                           Find_Orb
M 312.004300499 +/- 0.17            (J2000 ecliptic)
n   0.177437562 +/- 2.33e-5         Peri.   76.782439 +/- 0.15
a   3.136454617 +/- 0.000275        Node   358.413307 +/- 0.009
e   0.17134658 +/- 0.000337         Incl.   12.103139 +/- 0.021
P   5.55467                H 17.48  G  0.15   U  5.8
q 2.599033827 +/- 0.00122    Q 3.673875407 +/- 0.000873
From 13 observations 2024 Sept. 12-Oct. 22; mean residual 0.783 sigmas
Residuals in arcseconds: 
240912 F51 +0.59 +0.93    240924 G96 -0.83 +1.28    241022 F52 -0.17 +0.45    
240912 F51 -0.15 -0.81    240927 F52 +1.96 -0.50    241022 F52 -1.31 +0.28    
240912 F51 -0.54 -0.15    240927 F52 -0.29 +0.04    241022 F52 +1.30 -0.72    
240924 G96 -0.73 -0.99    240927 F52 -0.32 -0.30    
240924 G96 -0.95 +0.26    240927 F52 +0.11 +0.53    

Ephemerides (geocentric):
Date (UTC) HH   RA             Dec           delta  r     elong SM  mag  LuElo  "/min    PA   " sig PA
---- --------  ------------   ------------  ------ ------ ----- --  ---  ----- ------- ------ --------
2025 01 28 17  00 37 12.492   +10 40 50.05  2.9819 2.7033  64.2    23.0   75.2   0.836  64.7  77.9  73
2025 01 28 18  00 37 15.570   +10 41 11.48  2.9824 2.7033  64.2    23.0   74.6   0.836  64.7  78.0  73
2025 01 28 19  00 37 18.649   +10 41 32.92  2.9828 2.7032  64.2    23.0   74.1   0.836  64.7  78.0  73
2025 01 28 20  00 37 21.729   +10 41 54.37  2.9833 2.7032  64.1    23.0   73.5   0.837  64.7  78.0  73
2025 01 28 21  00 37 24.810   +10 42 15.82  2.9837 2.7031  64.1    23.0   73.0   0.837  64.7  78.1  73
2025 01 28 22  00 37 27.893   +10 42 37.28  2.9842 2.7031  64.1    23.0   72.4   0.837  64.7  78.1  73
2025 01 28 23  00 37 30.976   +10 42 58.74  2.9846 2.7030  64.1    23.0   71.8   0.838  64.7  78.2  73
2025 01 29 00  00 37 34.061   +10 43 20.21  2.9851 2.7030  64.0    23.0   71.3   0.838  64.7  78.2  73
2025 01 29 01  00 37 37.146   +10 43 41.68  2.9856 2.7029  64.0    23.0   70.7   0.838  64.7  78.3  73
2025 01 29 02  00 37 40.233   +10 44 03.16  2.9860 2.7029  64.0    23.0   70.2   0.838  64.7  78.3  73
2025 01 29 03  00 37 43.321   +10 44 24.64  2.9865 2.7028  63.9    23.0   69.6   0.839  64.7  78.4  73
2025 01 29 04  00 37 46.410   +10 44 46.13  2.9869 2.7028  63.9    23.0   69.0   0.839  64.7  78.4  73
2025 01 29 05  00 37 49.500   +10 45 07.62  2.9874 2.7027  63.9    23.0   68.5   0.839  64.7  78.5  73
2025 01 29 06  00 37 52.591   +10 45 29.13  2.9878 2.7027  63.9    23.0   67.9   0.839  64.7  78.5  73
2025 01 29 07  00 37 55.683   +10 45 50.63  2.9883 2.7026  63.8    23.0   67.4   0.840  64.7  78.6  73
2025 01 29 08  00 37 58.776   +10 46 12.14  2.9888 2.7026  63.8    23.0   66.8   0.840  64.7  78.6  73
2025 01 29 09  00 38 01.870   +10 46 33.66  2.9892 2.7025  63.8    23.0   66.2   0.840  64.7  78.7  73
2025 01 29 10  00 38 04.966   +10 46 55.18  2.9897 2.7025  63.8    23.0   65.7   0.841  64.7  78.7  73
2025 01 29 11  00 38 08.062   +10 47 16.71  2.9901 2.7024  63.7    23.0   65.1   0.841  64.7  78.7  73
2025 01 29 12  00 38 11.160   +10 47 38.24  2.9906 2.7024  63.7    23.0   64.5   0.841  64.7  78.8  73
2025 01 29 13  00 38 14.259   +10 47 59.78  2.9910 2.7024  63.7    23.0   64.0   0.841  64.7  78.8  73
2025 01 29 14  00 38 17.359   +10 48 21.32  2.9915 2.7023  63.6    23.0   63.4   0.842  64.7  78.9  73
2025 01 29 15  00 38 20.459   +10 48 42.87  2.9919 2.7023  63.6    23.0   62.8   0.842  64.8  78.9  73
2025 01 29 16  00 38 23.561   +10 49 04.42  2.9924 2.7022  63.6    23.0   62.3   0.842  64.8  79.0  73
2025 01 29 17  00 38 26.664   +10 49 25.98  2.9929 2.7022  63.6    23.0   61.7   0.842  64.8  79.0  73
2025 01 29 18  00 38 29.768   +10 49 47.55  2.9933 2.7021  63.5    23.0   61.1   0.843  64.8  79.1  73
2025 01 29 19  00 38 32.874   +10 50 09.12  2.9938 2.7021  63.5    23.0   60.6   0.843  64.8  79.1  73
2025 01 29 20  00 38 35.980   +10 50 30.70  2.9942 2.7020  63.5    23.0   60.0   0.843  64.8  79.2  73
2025 01 29 21  00 38 39.087   +10 50 52.28  2.9947 2.7020  63.4    23.0   59.4   0.843  64.8  79.2  73
2025 01 29 22  00 38 42.196   +10 51 13.86  2.9951 2.7019  63.4    23.0   58.9   0.844  64.8  79.3  73
2025 01 29 23  00 38 45.305   +10 51 35.45  2.9956 2.7019  63.4    23.0   58.3   0.844  64.8  79.3  73
2025 01 30 00  00 38 48.416   +10 51 57.05  2.9960 2.7018  63.4    23.0   57.7   0.844  64.8  79.4  73
2025 01 30 01  00 38 51.527   +10 52 18.65  2.9965 2.7018  63.3    23.0   57.2   0.844  64.8  79.4  73
2025 01 30 02  00 38 54.640   +10 52 40.26  2.9970 2.7017  63.3    23.0   56.6   0.845  64.8  79.4  73
2025 01 30 03  00 38 57.754   +10 53 01.87  2.9974 2.7017  63.3    23.0   56.0   0.845  64.8  79.5  73
2025 01 30 04  00 39 00.869   +10 53 23.49  2.9979 2.7016  63.2    23.0   55.5   0.845  64.8  79.5  73
2025 01 30 05  00 39 03.985   +10 53 45.12  2.9983 2.7016  63.2    23.0   54.9   0.846  64.8  79.6  73
2025 01 30 06  00 39 07.102   +10 54 06.75  2.9988 2.7015  63.2    23.0   54.3   0.846  64.8  79.6  73
2025 01 30 07  00 39 10.220   +10 54 28.38  2.9992 2.7015  63.2    23.0   53.7   0.846  64.8  79.7  73
2025 01 30 08  00 39 13.339   +10 54 50.02  2.9997 2.7015  63.1    23.0   53.2   0.846  64.8  79.7  73
2025 01 30 09  00 39 16.460   +10 55 11.66  3.0001 2.7014  63.1    23.0   52.6   0.847  64.8  79.8  73
2025 01 30 10  00 39 19.581   +10 55 33.31  3.0006 2.7014  63.1    23.0   52.0   0.847  64.8  79.8  73
2025 01 30 11  00 39 22.703   +10 55 54.97  3.0010 2.7013  63.1    23.0   51.5   0.847  64.8  79.9  73
2025 01 30 12  00 39 25.827   +10 56 16.63  3.0015 2.7013  63.0    23.0   50.9   0.847  64.8  79.9  73
2025 01 30 13  00 39 28.951   +10 56 38.30  3.0019 2.7012  63.0    23.0   50.3   0.848  64.8  80.0  73
2025 01 30 14  00 39 32.077   +10 56 59.97  3.0024 2.7012  63.0    23.0   49.7   0.848  64.8  80.0  73
2025 01 30 15  00 39 35.204   +10 57 21.64  3.0028 2.7011  62.9    23.0   49.2   0.848  64.8  80.1  73
2025 01 30 16  00 39 38.331   +10 57 43.33  3.0033 2.7011  62.9    23.0   48.6   0.848  64.8  80.1  73
2025 01 30 17  00 39 41.460   +10 58 05.01  3.0038 2.7010  62.9    23.0   48.0   0.849  64.8  80.1  73
2025 01 30 18  00 39 44.590   +10 58 26.70  3.0042 2.7010  62.9    23.0   47.4   0.849  64.8  80.2  73
2025 01 30 19  00 39 47.721   +10 58 48.40  3.0047 2.7009  62.8    23.0   46.9   0.849  64.8  80.2  73
2025 01 30 20  00 39 50.853   +10 59 10.10  3.0051 2.7009  62.8    23.0   46.3   0.849  64.8  80.3  73
2025 01 30 21  00 39 53.986   +10 59 31.81  3.0056 2.7008  62.8    23.0   45.7   0.850  64.8  80.3  73
2025 01 30 22  00 39 57.120   +10 59 53.52  3.0060 2.7008  62.7    23.0   45.1   0.850  64.8  80.4  73
2025 01 30 23  00 40 00.255   +11 00 15.24  3.0065 2.7007  62.7    23.0   44.6   0.850  64.8  80.4  73
2025 01 31 00  00 40 03.392   +11 00 36.97  3.0069 2.7007  62.7    23.0   44.0   0.850  64.8  80.5  73
2025 01 31 01  00 40 06.529   +11 00 58.69  3.0074 2.7007  62.7    23.0   43.4   0.851  64.8  80.5  73
2025 01 31 02  00 40 09.667   +11 01 20.43  3.0078 2.7006  62.6    23.0   42.8   0.851  64.8  80.6  73
2025 01 31 03  00 40 12.807   +11 01 42.17  3.0083 2.7006  62.6  m 23.0   42.3   0.851  64.8  80.6  73
2025 01 31 04  00 40 15.947   +11 02 03.91  3.0087 2.7005  62.6  m 23.0   41.7   0.852  64.8  80.7  73
2025 01 31 05  00 40 19.089   +11 02 25.66  3.0092 2.7005  62.6  m 23.0   41.1   0.852  64.8  80.7  73
2025 01 31 06  00 40 22.232   +11 02 47.42  3.0096 2.7004  62.5  m 23.0   40.5   0.852  64.8  80.8  73
2025 01 31 07  00 40 25.375   +11 03 09.17  3.0101 2.7004  62.5  m 23.0   39.9   0.852  64.8  80.8  73
2025 01 31 08  00 40 28.520   +11 03 30.94  3.0105 2.7003  62.5  m 23.0   39.4   0.853  64.8  80.8  73
